CW7536 Weather Reports


Display with metric or nautical units.
time (UTC)temp
F
wind
direction
speed
MPH
gust
MPH
rain 1hr
in
rain 24hr
in
rain mn
in
humidity
%
barometer
mb
20260505170044 80 259 2.0 8.0 0.00 8.74 0.15 42 1009.1
20260505164542 80 277 2.0 8.0 0.00 1.07 0.15 41 1009.4
20260505163035 80 264 1.0 5.0 0.00 1.07 0.15 42 1009.6
20260505161530 79 234 1.0 7.0 0.00 1.07 0.15 44 1009.7
20260505153017 76 257 0.0 8.0 0.01 1.15 0.15 47 1010.3
20260505151513 75 268 2.0 5.0 0.02 1.15 0.15 47 1010.5
20260505124529 64 255 0.0 5.0 0.00 1.30 0.13 37 1010.9
20260505123031 62 264 2.0 5.0 0.00 1.30 0.13 28 1010.6
20260505121520 61 252 0.0 3.0 0.00 1.30 0.13 10 1010.8
20260505120022 59 154 0.0 3.0 0.00 1.30 0.13 1 1011.0
20260505114510 57 238 0.0 2.0 0.00 1.30 0.13 1 1010.9
20260505113005 56 124 0.0 1.0 0.00 1.30 0.13 1 1011.0
20260505111505 56 165 0.0 0.0 0.00 1.30 0.13 1 1011.0
20260505101601 53 266 0.0 0.0 0.00 1.30 0.13 1 1010.8
20260505100058 52 338 0.0 1.0 0.00 1.30 0.13 1 1010.5
20260505094536 52 338 0.0 0.0 0.00 1.30 0.13 1 1010.3
20260505093032 51 340 0.0 0.0 0.00 1.30 0.13 1 1010.2
20260505091528 50 236 0.0 0.0 0.00 1.30 0.13 1 1010.0
20260505090023 50 237 0.0 0.0 0.00 1.30 0.13 1 1010.1
20260505084519 50 237 0.0 0.0 0.00 1.30 0.13 1 1009.9
20260505083014 50 237 0.0 0.0 0.00 1.30 0.13 1 1009.9
20260505081511 51 237 0.0 1.0 0.00 1.30 0.13 1 1010.0
20260505080008 50 146 0.0 0.0 0.00 1.30 0.13 1 1010.0
20260505074504 51 146 0.0 0.0 0.00 1.30 0.13 1 1010.0
20260505073105 51 146 0.0 0.0 0.00 1.30 0.13 1 1010.0
20260505071557 52 143 0.0 1.0 0.00 1.30 0.13 1 1009.9
20260505070057 52 264 0.0 2.0 0.00 1.30 0.13 1 1009.9
20260505064546 52 264 0.0 0.0 0.00 1.30 0.13 1 1010.0
20260505063048 52 264 0.0 0.0 0.00 1.30 0.13 1 1010.1
20260505061540 53 264 0.0 0.0 0.00 1.30 0.13 6 1010.2
20260505060033 53 264 0.0 0.0 0.00 1.30 0.13 13 1010.2
20260505054530 54 264 0.0 0.0 0.00 1.30 0.13 23 1010.3
20260505053036 54 264 0.0 0.0 0.00 1.30 0.13 34 1010.3
20260505051536 55 264 0.0 0.0 0.00 1.30 0.13 43 1010.3
20260505041515 58 271 0.0 2.0 5.65 1.30 0.13 52 1010.6
20260505040010 58 262 0.0 1.0 5.52 1.29 1.29 53 1010.5
20260505034510 59 267 0.0 1.0 4.83 1.22 1.22 53 1010.5
20260505033009 59 271 0.0 1.0 2.47 9.86 9.86 53 1010.6
20260505031509 59 271 0.0 1.0 0.00 7.39 7.39 52 1010.6
20260505030008 60 265 0.0 4.0 0.00 7.39 7.39 52 1010.7
20260505024508 60 264 0.0 1.0 0.00 7.39 7.39 52 1010.8
20260505023012 60 236 0.0 1.0 0.00 7.39 7.39 52 1010.7
20260505021506 60 280 0.0 1.0 0.00 7.39 7.39 52 1010.8
20260505020005 60 281 0.0 1.0 0.00 7.39 7.39 50 1010.7
20260505014505 61 232 0.0 0.0 0.00 7.39 7.39 50 1010.6
20260505013104 61 208 0.0 0.0 0.00 7.39 7.39 49 1010.5
20260505011504 62 203 0.0 0.0 0.00 7.39 7.39 48 1010.4
20260505010010 63 273 0.0 1.0 0.00 7.39 7.39 46 1010.1
20260505004503 65 273 0.0 2.0 0.00 7.39 7.39 44 1009.9
20260505003008 66 288 0.0 1.0 0.00 7.39 7.39 43 1009.9
20260505001502 66 273 0.0 3.0 0.00 7.39 7.39 42 1009.6
20260505000001 67 281 0.0 4.0 0.00 7.39 7.39 41 1009.4
20260504234500 68 248 1.0 6.0 0.00 7.39 7.39 40 1009.2
20260504233100 68 267 1.0 4.0 0.00 7.39 7.39 39 1008.9
20260504231601 69 285 2.0 6.0 0.00 7.39 7.39 38 1008.8
20260504230059 69 193 1.0 6.0 0.00 7.39 7.39 38 1008.7
20260504224559 70 271 1.0 6.0 0.00 7.39 7.39 37 1008.6
20260504223102 71 245 1.0 5.0 0.00 7.39 7.39 36 1008.8
20260504221609 71 283 1.0 4.0 0.00 7.39 7.39 36 1008.8
20260504220056 71 274 1.0 11.0 0.00 7.39 7.39 35 1008.9
20260504214601 71 245 2.0 7.0 0.56 7.39 7.39 35 1009.0
20260504213104 71 324 2.0 10.0 0.64 7.39 7.39 36 1009.2
20260504211553 71 251 2.0 12.0 0.64 7.39 7.39 36 1009.2
20260504210052 71 225 2.0 5.0 1.21 7.39 7.39 35 1009.2
20260504204558 72 226 2.0 7.0 0.95 6.82 6.82 35 1009.3
20260504203053 72 297 2.0 6.0 1.52 6.75 6.75 35 1009.2
20260504201548 72 237 1.0 10.0 1.52 6.75 6.75 35 1009.3
20260504200046 72 250 1.0 10.0 0.82 6.05 6.05 35 1009.4
20260504194547 71 256 0.0 9.0 0.64 5.87 5.87 35 1009.5
20260504193043 71 230 3.0 13.0 0.00 5.23 5.23 34 1009.6
20260504191542 71 228 2.0 8.0 0.05 5.23 5.23 34 1009.7
20260504190040 71 221 3.0 11.0 0.28 5.23 5.23 34 1009.9
20260504184537 71 160 0.0 7.0 0.28 5.23 5.23 38 1010.2
20260504183034 70 217 1.0 8.0 0.28 5.23 5.23 35 1010.4
20260504181537 69 70 3.0 8.0 0.20 5.15 5.15 34 1010.7
20260504180035 69 192 3.0 10.0 0.54 4.95 4.95 36 1010.6
20260504174528 69 169 2.0 9.0 2.44 4.95 4.95 37 1010.8
20260504173030 68 275 2.0 13.0 2.44 4.95 4.95 37 1011.1
20260504171626 68 130 3.0 11.0 2.44 4.95 4.95 37 1011.3